SPK126 KLAX-PGUM

Flight info

Callsign SPK126
Flight time N/A
Altitude 30000
Route SUMMR2 RIZIN KL30E ALANN 36N30 37N40 37N50 36N60 34N69 32N77 30E77 28E72 25E66 24E64 22E60 20E56 18E53 16E50 STINE A450 BAGBE FIGOR FOLAP
Aircraft B77W/H-L/S

Departure

Time 2026-04-26 01:08
Airport Los Angeles International Airport (KLAX)

Arrival

Time N/A
Airport Antonio B. Won Pat International Airport (PGUM)
Time Latitude Longitude Altitude Speed Heading
2026-04-26 00:31 33.94040 -118.39919 139 ft 0 kts 353°
2026-04-26 00:52 33.94030 -118.39918 139 ft 4 kts 349°
2026-04-26 00:52 33.94006 -118.39910 139 ft 4 kts 330°
2026-04-26 00:53 33.93987 -118.39893 139 ft 4 kts 304°
2026-04-26 00:53 33.93976 -118.39867 139 ft 4 kts 278°
2026-04-26 00:53 33.93975 -118.39836 139 ft 4 kts 264°
2026-04-26 00:53 33.93978 -118.39804 139 ft 4 kts 259°
2026-04-26 00:54 33.93982 -118.39781 139 ft 0 kts 263°
2026-04-26 00:57 33.93981 -118.39791 139 ft 6 kts 263°
2026-04-26 00:57 33.93972 -118.39880 139 ft 13 kts 263°
2026-04-26 00:57 33.93961 -118.39984 139 ft 12 kts 263°
2026-04-26 00:57 33.93951 -118.40084 139 ft 12 kts 263°
2026-04-26 00:58 33.93941 -118.40179 139 ft 11 kts 263°
2026-04-26 00:58 33.93932 -118.40272 139 ft 11 kts 263°
2026-04-26 00:58 33.93921 -118.40377 139 ft 16 kts 263°
2026-04-26 00:58 33.93908 -118.40504 139 ft 15 kts 263°
2026-04-26 00:59 33.93896 -118.40624 139 ft 14 kts 263°
2026-04-26 00:59 33.93884 -118.40737 139 ft 13 kts 263°
2026-04-26 00:59 33.93873 -118.40843 139 ft 13 kts 263°
2026-04-26 00:59 33.93863 -118.40944 139 ft 12 kts 263°
2026-04-26 01:00 33.93853 -118.41043 139 ft 12 kts 263°
2026-04-26 01:00 33.93843 -118.41138 139 ft 11 kts 263°
2026-04-26 01:00 33.93842 -118.41228 139 ft 11 kts 288°
2026-04-26 01:00 33.93899 -118.41272 139 ft 10 kts 353°
2026-04-26 01:01 33.93968 -118.41281 139 ft 10 kts 353°
2026-04-26 01:01 33.94034 -118.41290 139 ft 9 kts 353°
2026-04-26 01:01 33.94098 -118.41298 139 ft 9 kts 353°
2026-04-26 01:01 33.94184 -118.41311 139 ft 13 kts 353°
2026-04-26 01:02 33.94272 -118.41323 139 ft 13 kts 352°
2026-04-26 01:02 33.94357 -118.41337 139 ft 12 kts 352°
2026-04-26 01:02 33.94439 -118.41349 139 ft 12 kts 352°
2026-04-26 01:02 33.94517 -118.41361 139 ft 11 kts 354°
2026-04-26 01:03 33.94593 -118.41371 139 ft 11 kts 353°
2026-04-26 01:03 33.94665 -118.41381 139 ft 10 kts 353°
2026-04-26 01:03 33.94733 -118.41391 139 ft 10 kts 355°
2026-04-26 01:03 33.94785 -118.41351 139 ft 9 kts 69°
2026-04-26 01:04 33.94795 -118.41275 139 ft 9 kts 83°
2026-04-26 01:04 33.94802 -118.41201 139 ft 9 kts 83°
2026-04-26 01:04 33.94812 -118.41109 139 ft 16 kts 83°
2026-04-26 01:04 33.94826 -118.40979 139 ft 15 kts 83°
2026-04-26 01:05 33.94839 -118.40857 139 ft 14 kts 83°
2026-04-26 01:05 33.94851 -118.40743 139 ft 13 kts 83°
2026-04-26 01:05 33.94862 -118.40635 139 ft 13 kts 83°
2026-04-26 01:05 33.94872 -118.40532 139 ft 12 kts 83°
2026-04-26 01:06 33.94881 -118.40432 139 ft 12 kts 83°
2026-04-26 01:06 33.94891 -118.40336 139 ft 11 kts 83°
2026-04-26 01:06 33.94900 -118.40245 139 ft 11 kts 83°
2026-04-26 01:06 33.94935 -118.40180 139 ft 10 kts
2026-04-26 01:07 33.95004 -118.40191 139 ft 10 kts 326°
2026-04-26 01:07 33.95013 -118.40231 139 ft 4 kts 262°
2026-04-26 01:07 33.94999 -118.40363 139 ft 44 kts 263°
2026-04-26 01:07 33.94930 -118.41044 140 ft 119 kts 263°
2026-04-26 01:08 33.94802 -118.42311 143 ft 183 kts 263°
2026-04-26 01:08 33.94636 -118.43975 450 ft 211 kts 263°
2026-04-26 01:08 33.94478 -118.45715 1562 ft 204 kts 264°
2026-04-26 01:08 33.94341 -118.47376 2781 ft 196 kts 263°
2026-04-26 01:09 33.94239 -118.48976 3698 ft 187 kts 266°
2026-04-26 01:09 33.94189 -118.50609 3919 ft 199 kts 267°
2026-04-26 01:09 33.94145 -118.52301 4178 ft 213 kts 265°
2026-04-26 01:09 33.93964 -118.54129 4313 ft 224 kts 261°
2026-04-26 01:10 33.93758 -118.56011 4345 ft 228 kts 263°
2026-04-26 01:10 33.93619 -118.57925 4725 ft 231 kts 265°
2026-04-26 01:10 33.93492 -118.59919 5030 ft 249 kts 264°
2026-04-26 01:10 33.93341 -118.62080 5275 ft 267 kts 264°
2026-04-26 01:11 33.93170 -118.64338 5850 ft 272 kts 264°
2026-04-26 01:11 33.93002 -118.66598 6621 ft 270 kts 264°
2026-04-26 01:11 33.92830 -118.68856 7298 ft 273 kts 264°
2026-04-26 01:11 33.92651 -118.71150 7853 ft 278 kts 264°
2026-04-26 01:12 33.92464 -118.73532 8143 ft 294 kts 264°
2026-04-26 01:12 33.92266 -118.76042 8463 ft 309 kts 263°
2026-04-26 01:12 33.92056 -118.78698 8709 ft 327 kts 263°
2026-04-26 01:12 33.91838 -118.81474 9079 ft 340 kts 264°
2026-04-26 01:13 33.91716 -118.84353 9618 ft 348 kts 268°
2026-04-26 01:13 33.91766 -118.87288 10288 ft 352 kts 270°
2026-04-26 01:13 33.91885 -118.90238 11003 ft 354 kts 270°
2026-04-26 01:13 33.91996 -118.93199 11710 ft 355 kts 269°
2026-04-26 01:14 33.92083 -118.96166 12395 ft 356 kts 269°
2026-04-26 01:14 33.92295 -118.99152 12912 ft 363 kts 276°
2026-04-26 01:14 33.92994 -119.02104 13505 ft 370 kts 287°
2026-04-26 01:14 33.94051 -119.04949 14128 ft 375 kts 291°
2026-04-26 01:15 33.95293 -119.07731 14694 ft 380 kts 295°
2026-04-26 01:15 33.96704 -119.10446 15236 ft 385 kts 298°
2026-04-26 01:15 33.98173 -119.13158 15812 ft 387 kts 297°
2026-04-26 01:15 33.99663 -119.15870 16274 ft 393 kts 301°
2026-04-26 01:16 34.01467 -119.18415 16631 ft 405 kts 309°
2026-04-26 01:16 34.03563 -119.20724 17133 ft 411 kts 314°
2026-04-26 01:16 34.05815 -119.22886 17648 ft 416 kts 317°
2026-04-26 01:16 34.08172 -119.24953 18064 ft 422 kts 319°
2026-04-26 01:17 34.10590 -119.26976 18564 ft 424 kts 320°
2026-04-26 01:17 34.13024 -119.29024 19019 ft 427 kts 319°
2026-04-26 01:17 34.15461 -119.31097 19434 ft 431 kts 319°
2026-04-26 01:17 34.17924 -119.33181 19883 ft 433 kts 319°
2026-04-26 01:18 34.20393 -119.35295 20318 ft 436 kts 319°
2026-04-26 01:18 34.22873 -119.37432 20724 ft 440 kts 318°
2026-04-26 01:18 34.25364 -119.39588 21108 ft 443 kts 318°
2026-04-26 01:18 34.27877 -119.41766 21508 ft 445 kts 318°
2026-04-26 01:19 34.30402 -119.43954 21897 ft 448 kts 318°
2026-04-26 01:19 34.32940 -119.46157 22282 ft 451 kts 318°
2026-04-26 01:19 34.35497 -119.48376 22655 ft 453 kts 318°
2026-04-26 01:19 34.37987 -119.50703 22998 ft 449 kts 310°
2026-04-26 01:20 34.40043 -119.53488 23309 ft 441 kts 298°
2026-04-26 01:20 34.41570 -119.56672 23637 ft 435 kts 289°
2026-04-26 01:20 34.42750 -119.60038 23987 ft 433 kts 284°
2026-04-26 01:20 34.43758 -119.63471 24360 ft 433 kts 282°
2026-04-26 01:21 34.44651 -119.66951 24718 ft 433 kts 280°
2026-04-26 01:21 34.45486 -119.70463 25035 ft 435 kts 279°
2026-04-26 01:21 34.46322 -119.73996 25378 ft 437 kts 280°
2026-04-26 01:21 34.47169 -119.77540 25701 ft 439 kts 280°
2026-04-26 01:22 34.48029 -119.81099 26020 ft 441 kts 280°
2026-04-26 01:22 34.48895 -119.84666 26333 ft 443 kts 280°
2026-04-26 01:22 34.49769 -119.88257 26630 ft 445 kts 280°
2026-04-26 01:22 34.50646 -119.91857 26915 ft 447 kts 280°
2026-04-26 01:23 34.51541 -119.95479 27209 ft 449 kts 281°
2026-04-26 01:23 34.52455 -119.99101 27518 ft 450 kts 280°
2026-04-26 01:23 34.53365 -120.02743 27766 ft 453 kts 281°
2026-04-26 01:23 34.54275 -120.06408 27966 ft 456 kts 281°
2026-04-26 01:24 34.55185 -120.10098 28250 ft 457 kts 281°
2026-04-26 01:24 34.56094 -120.13794 28529 ft 458 kts 281°
2026-04-26 01:24 34.57002 -120.17504 28754 ft 460 kts 281°
2026-04-26 01:24 34.57914 -120.21233 28942 ft 463 kts 281°
2026-04-26 01:25 34.58828 -120.24979 29201 ft 463 kts 281°
2026-04-26 01:25 34.59743 -120.28735 29410 ft 465 kts 281°
2026-04-26 01:25 34.60659 -120.32505 29612 ft 467 kts 281°
2026-04-26 01:25 34.61576 -120.36284 29903 ft 466 kts 281°